Starlink 1566

operational
NORAD ID: 46079 Int'l Des: 2020-055 Owner: SPXS Country: US Constellation: starlink
LEOCIRCULARSTARLINK_TYPE

关于 Starlink 1566

正在加载描述...

实时位置

正在加载3D地球...

即将过境

高度历史

Altitude vs Time

uPlot chart will show altitude changes over time

两行轨道根数

1 46079U 20055BE 25350.06822365 .00000976 00000-0 84399-4 0 9994
2 46079 53.0547 112.0088 0001112 88.7622 271.3495 15.06400756296709
Epoch: Dec 16, 2025 • Age: 27 hours

当前状态

高度 566.0 km
速度 7.58 km/s
星下点 -52.02°S, 149.65°W
发射日期 Aug 7, 2020
运行时间 5.3 years
类型 internet

技术详情

分类 Payload
质量 260.00 kg
干质量 248.00 kg
总质量 260.00 kg
长度 0.20 m
直径 2.80 m
跨度 9.00 m
形状 Box + pan
制造商 SPXS
平台类型 Starlink
阶段状态 In Orbit
所有者/国家 SPXS/US

大型星座

Loading constellations...